Location: *
(32.3758°S, 63.1185°E)
Time: 00:09:34
(UTC+00:00)

Cosmos 2184 Rocket - Pass Details

Date: 02 June 2023
Orbit: 960 x 1001 km, 82.9° (Epoch: 03 October)

Event Time Altitude Azimuth Distance (km) Brightness Sun altitude
Rises 14:10:17 0° 176° (S) 3,692 6.8 -16.7°
Reaches altitude 10° 14:13:02 10° 167° (SSE) 2,744 6.1 -17.2°
Maximum altitude 14:18:45 36° 101° (ESE) 1,516 4.5 -18.4°
Drops below altitude 10° 14:24:28 10° 36° (NE) 2,742 6.1 -19.5°
Sets 14:27:12 0° 27° (NNE) 3,689 6.9 -20.1°
